Location: *
(55.6049°S, 142.1985°W)
Time: 04:20:44
(UTC+00:00)

GENESIS II - Pass Details

Date: 12 May 2021
Orbit: 510 x 515 km, 64.5° (Epoch: 23 June)

Event Time Altitude Azimuth Distance (km) Brightness Sun altitude
Exits shadow 14:23:09 63° 38° (NE) 594 4.5 -23.7°
Drops below altitude 10° 14:26:31 10° 45° (NE) 1,764 7.4 -23.3°
Sets 14:28:41 0° 45° (NE) 2,647 8.5 -22.9°
